[[{"header":{"parameterUnit":"m.s-1","parameterCategory":2,"la1":30.2992,"la2":30.254,"lo1":-89.0895,"lo2":-89.0443,"dy":0.0025,"dx":0.0025,"nx":19,"ny":19,"refTime":"2026-03-19T03:00:00:Z","depth":"0","parameterNumber":2,"parameterNumberName":"U-component_of_CURRENTS"},"data":[0,0,0,0.1102,0.1101,0.1005,0.1004,0.0841,0.084,0,0,0,0,0,0,0,0,0,0,0,0.1118,0.1118,0.1102,0.1101,0.1005,0.1004,0.0841,0.084,0,0,0,0,0,0,0,0,0,0,0,0.1118,0.1118,0.1118,0.1101,0.1005,0.1004,0.0841,0.0915,0,0,0,0,0,0,0,0,0,0,0.1009,0.1059,0.1118,0.1118,0.1101,0.1005,0.1004,0.0918,0.091,0.0886,0,0.0885,0,0.0883,0.0832,0.0831,0,0,0,0.1061,0.1066,0.1036,0.1118,0.1101,0.1006,0.1037,0.0913,0.0904,0.0875,0.0883,0.0877,0.0881,0.0831,0.083,0.0851,0.0852,0,0,0.1067,0.1098,0.1042,0.1031,0.1093,0.1041,0.1035,0.0908,0.0908,0.0882,0.0874,0.0878,0.083,0.0829,0.0849,0.0851,0,0,0,0.1109,0.1102,0.1074,0.1037,0.1036,0.1039,0.1032,0.0913,0.0903,0.0872,0.0876,0.0829,0.0828,0.0848,0.085,0.1065,0,0,0,0.111,0.1129,0.1077,0.1094,0.104,0.0985,0.104,0.0911,0.0898,0.0877,0.0829,0.0827,0.0847,0.0849,0.1056,0.1098,0,0,0,0.1119,0.1131,0.1124,0.1096,0.1074,0.0987,0.0968,0.0907,0.0902,0.0831,0.0826,0.0846,0.0849,0.1048,0.1086,0.1188,0,0,0,0.1146,0.1166,0.1125,0.1139,0.1075,0.1059,0.0969,0.0938,0.0888,0.0829,0.0847,0.085,0.1046,0.1079,0.1181,0.1224,0.1263,0,0,0.1189,0.1172,0.1177,0.1139,0.1146,0.1068,0.1103,0.0998,0.0923,0.0875,0.0875,0.1059,0.1085,0.1187,0.138,0.1413,0,0,0,0.1202,0.1205,0.1199,0.1189,0.1162,0.1171,0.1085,0.1094,0.1086,0.0914,0.1053,0.1061,0.112,0.113,0.1158,0.116,0.0862,0.0862,0.0862,0.1301,0.1265,0.1284,0.1249,0.1248,0.1241,0.1276,0.1269,0.1181,0.1245,0.1236,0.1448,0.1465,0.1485,0.1489,0.126,0.1261,0.1261,0.1262,0.138,0.138,0.1354,0.1359,0.1362,0.1389,0.1448,0.1453,0.1548,0.1442,0.149,0.1353,0.1528,0.152,0.1276,0.1273,0.1271,0.127,0.1269,0.1453,0.1441,0.1441,0.1441,0.1482,0.1487,0.1588,0.1644,0.1692,0.1774,0.1733,0.1728,0.1718,0.1798,0.1798,0.1799,0.18,0.18,0.1801,0.1514,0.1506,0.1511,0.1515,0.1524,0.1575,0.1676,0.1763,0.1895,0.1929,0.1929,0.1799,0.1609,0.1584,0.1811,0.181,0.1808,0.1807,0.1806,0.1548,0.1534,0.1557,0.1563,0.1582,0.1623,0.1721,0.1908,0.2034,0.2124,0.2124,0.2017,0.1935,0.191,0.189,0.2183,0.2183,0.2183,0.2183,0.1558,0.1554,0.1572,0.1586,0.1614,0.1644,0.1756,0.1917,0.215,0.2256,0.2284,0.2197,0.2181,0.2105,0.2076,0.2055,0.2383,0.2383,0.2383,0.1553,0.1571,0.1587,0.1595,0.1615,0.1649,0.1714,0.1865,0.2225,0.2389,0.2294,0.2285,0.2146,0.212,0.1978,0.1938,0.189,0,0]},{"header":{"parameterUnit":"m.s-1","parameterCategory":2,"la1":30.2992,"la2":30.254,"lo1":-89.0895,"lo2":-89.0443,"dy":0.0025,"dx":0.0025,"nx":19,"ny":19,"refTime":"2026-03-19T03:00:00:Z","depth":"0","parameterNumber":3,"parameterNumberName":"V-component_of_CURRENTS"},"data":[0,0,0,-0.0931,-0.0926,-0.0643,-0.0642,-0.0544,-0.0545,0,0,0,0,0,0,0,0,0,0,0,-0.1035,-0.1033,-0.0932,-0.0925,-0.0643,-0.0642,-0.0544,-0.0545,0,0,0,0,0,0,0,0,0,0,0,-0.1035,-0.1034,-0.1032,-0.0924,-0.0644,-0.0642,-0.0544,-0.0686,0,0,0,0,0,0,0,0,0,0,-0.0925,-0.0999,-0.1034,-0.1032,-0.0923,-0.0644,-0.0641,-0.069,-0.0678,-0.0755,0,-0.0719,0,-0.0645,-0.0546,-0.0546,0,0,0,-0.0901,-0.1009,-0.093,-0.1032,-0.0921,-0.0645,-0.0764,-0.068,-0.0667,-0.074,-0.0717,-0.0711,-0.0643,-0.0546,-0.0547,-0.045,-0.0449,0,0,-0.0917,-0.0988,-0.0939,-0.0922,-0.0865,-0.0773,-0.0755,-0.0669,-0.0673,-0.0717,-0.0707,-0.0641,-0.0547,-0.0547,-0.0451,-0.045,0,0,0,-0.0978,-0.0999,-0.0915,-0.0929,-0.0863,-0.0766,-0.0745,-0.0675,-0.0646,-0.0705,-0.064,-0.0547,-0.0547,-0.0453,-0.0451,-0.0261,0,0,0,-0.0986,-0.1035,-0.0923,-0.0963,-0.0864,-0.0732,-0.0754,-0.0651,-0.0638,-0.0641,-0.0547,-0.0547,-0.0454,-0.0451,-0.027,-0.0214,0,0,0,-0.1045,-0.1041,-0.1012,-0.0967,-0.0853,-0.073,-0.0692,-0.0644,-0.0602,-0.0546,-0.0547,-0.0455,-0.0452,-0.0277,-0.0225,-0.0172,0,0,0,-0.1121,-0.1066,-0.1014,-0.0923,-0.0856,-0.0651,-0.0691,-0.0583,-0.0531,-0.0547,-0.0454,-0.0451,-0.0279,-0.0233,-0.0179,-0.0135,-0.01,0,0,-0.1088,-0.1065,-0.1001,-0.0947,-0.075,-0.0688,-0.0461,-0.0446,-0.0513,-0.0502,-0.0496,-0.0267,-0.0226,-0.0173,0.0037,0.0066,0,0,0,-0.1012,-0.096,-0.0897,-0.0765,-0.0627,-0.0431,-0.0371,-0.0341,-0.0287,-0.0469,-0.026,-0.0241,-0.0213,-0.02,-0.0176,-0.0182,-0.0437,-0.0437,-0.0438,-0.1011,-0.0902,-0.0751,-0.0581,-0.0454,-0.0257,-0.0124,-0.0074,-0.0164,-0.0116,-0.0079,0.0096,0.0117,0.0134,0.013,-0.0059,-0.0058,-0.0057,-0.0057,-0.0881,-0.0747,-0.0612,-0.0437,-0.0243,-0.0062,0.013,0.0129,0.0232,0.0124,0.0141,0.0008,0.0172,0.0157,-0.0045,-0.0047,-0.0048,-0.0049,-0.005,-0.0811,-0.0727,-0.0629,-0.0372,-0.0131,0.0065,0.0276,0.0355,0.0354,0.0419,0.0341,0.0337,0.0311,0.0396,0.0396,0.0397,0.0398,0.0398,0.0398,-0.077,-0.0655,-0.0541,-0.0292,-0.014,0.0089,0.0343,0.0437,0.0527,0.053,0.0529,0.0388,0.0232,0.0199,0.0407,0.0405,0.0404,0.0403,0.0403,-0.068,-0.0667,-0.0504,-0.0376,-0.0027,0.0219,0.0401,0.0618,0.0687,0.0735,0.0668,0.0584,0.0508,0.0487,0.0458,0.072,0.072,0.072,0.072,-0.0672,-0.0634,-0.0464,-0.0267,0.0019,0.029,0.0571,0.078,0.0854,0.0863,0.0798,0.0732,0.0719,0.0648,0.0624,0.0594,0.0885,0.0885,0.0885,-0.0662,-0.0616,-0.0505,-0.0282,0.006,0.0357,0.0667,0.0977,0.1014,0.0888,0.0793,0.0786,0.0678,0.0658,0.0526,0.0492,0.0433,0,0]}],[{"header":{"parameterUnit":"m.s-1","parameterCategory":2,"la1":30.2992,"la2":30.254,"lo1":-89.0895,"lo2":-89.0443,"dy":0.0025,"dx":0.0025,"nx":19,"ny":19,"refTime":"2026-03-19T03:00:00:Z","depth":"2","parameterNumber":2,"parameterNumberName":"U-component_of_CURRENTS"},"data":[0,0,0,0.0483,0.0483,0.0528,0.0528,0.0603,0.0604,0,0,0,0,0,0,0,0,0,0,0,0.0476,0.0477,0.0483,0.0483,0.0528,0.0528,0.0603,0.0604,0,0,0,0,0,0,0,0,0,0,0,0.0476,0.0476,0.0477,0.0483,0.0528,0.0528,0.0603,0.057,0,0,0,0,0,0,0,0,0,0,0.0526,0.0516,0.0476,0.0477,0.0483,0.0527,0.0528,0.0568,0.0572,0.0582,0,0.0583,0,0.0583,0.0608,0.0608,0,0,0,0.0503,0.0513,0.0514,0.0477,0.0484,0.0527,0.0513,0.057,0.0574,0.0587,0.0583,0.0586,0.0584,0.0608,0.0608,0.0722,0.0723,0,0,0.05,0.0498,0.0511,0.0516,0.0487,0.0512,0.0514,0.0573,0.058,0.0584,0.0588,0.0585,0.0608,0.0609,0.0721,0.0722,0,0,0,0.048,0.0496,0.0497,0.0514,0.0513,0.0512,0.0516,0.0578,0.0575,0.0588,0.0586,0.0609,0.0609,0.072,0.0722,0.0967,0,0,0,0.048,0.0483,0.0495,0.0496,0.0512,0.0544,0.052,0.0571,0.0577,0.0586,0.0609,0.061,0.0719,0.0721,0.0958,0.1,0,0,0,0.0476,0.0483,0.0483,0.0496,0.0504,0.0543,0.0545,0.0573,0.0575,0.0608,0.061,0.0719,0.0721,0.095,0.0988,0.1015,0,0,0,0.048,0.0497,0.0483,0.0515,0.0503,0.0575,0.0544,0.0583,0.0613,0.0609,0.072,0.0722,0.0948,0.0981,0.1008,0.0794,0.0806,0,0,0.0506,0.05,0.0523,0.0511,0.0592,0.0571,0.0712,0.0714,0.065,0.0702,0.0705,0.0961,0.0987,0.1013,0.0909,0.0917,0,0,0,0.0536,0.0564,0.0582,0.0627,0.0656,0.0768,0.0772,0.0813,0.0883,0.0673,0.0932,0.0939,0.0949,0.0805,0.0813,0.0731,0.0731,0.0731,0.073,0.0604,0.0629,0.0696,0.0755,0.0817,0.0912,0.1013,0.1064,0.1001,0.107,0.1122,0.1275,0.113,0.1131,0.1132,0.1133,0.1134,0.1135,0.1135,0.069,0.0738,0.0804,0.088,0.0989,0.1121,0.1277,0.1297,0.1418,0.1336,0.1335,0.1048,0.1153,0.1154,0.1151,0.1148,0.1146,0.1145,0.1144,0.0756,0.0777,0.0827,0.0953,0.1122,0.125,0.1401,0.1514,0.1557,0.1626,0.1341,0.1333,0.1379,0.1597,0.1598,0.1598,0.1599,0.1599,0.1599,0.0782,0.0831,0.0892,0.1035,0.1115,0.1267,0.1467,0.1532,0.1544,0.1521,0.1517,0.1427,0.1412,0.1399,0.1605,0.1604,0.1603,0.1603,0.1602,0.083,0.0839,0.0918,0.0978,0.1128,0.1185,0.1347,0.1385,0.1462,0.1427,0.1442,0.1443,0.1308,0.1296,0.1275,0.1437,0.1437,0.1437,0.1437,0.0829,0.0855,0.0901,0.0959,0.1043,0.1131,0.106,0.1034,0.1121,0.11,0.1114,0.0995,0.1008,0.0847,0.0845,0.0811,0.0853,0.0852,0.0851,0.0828,0.0845,0.0861,0.0923,0.0995,0.1,0.0864,0.0715,0.0738,0.0831,0.1039,0.1393,0.1251,0.1259,0.103,0.1022,0.0973,0,0]},{"header":{"parameterUnit":"m.s-1","parameterCategory":2,"la1":30.2992,"la2":30.254,"lo1":-89.0895,"lo2":-89.0443,"dy":0.0025,"dx":0.0025,"nx":19,"ny":19,"refTime":"2026-03-19T03:00:00:Z","depth":"2","parameterNumber":3,"parameterNumberName":"V-component_of_CURRENTS"},"data":[0,0,0,0.0405,0.0403,0.0301,0.03,0.0233,0.0233,0,0,0,0,0,0,0,0,0,0,0,0.0449,0.0449,0.0405,0.0403,0.0301,0.03,0.0233,0.0233,0,0,0,0,0,0,0,0,0,0,0,0.0449,0.0449,0.0448,0.0403,0.0301,0.03,0.0233,0.0293,0,0,0,0,0,0,0,0,0,0,0.0384,0.0419,0.0449,0.0448,0.0402,0.0301,0.03,0.0295,0.0289,0.03,0,0.0292,0,0.0262,0.0231,0.0231,0,0,0,0.0395,0.0424,0.0395,0.0448,0.0401,0.0301,0.0345,0.0291,0.0285,0.0293,0.0291,0.0288,0.0261,0.023,0.023,0.0144,0.0143,0,0,0.0401,0.0429,0.0399,0.0391,0.0387,0.0348,0.0342,0.0287,0.0288,0.0291,0.0286,0.026,0.023,0.023,0.0144,0.0143,0,0,0,0.0423,0.0434,0.0404,0.0395,0.0372,0.0345,0.0338,0.029,0.028,0.0285,0.0259,0.023,0.023,0.0145,0.0144,0.024,0,0,0,0.0426,0.0446,0.0407,0.0423,0.0373,0.0321,0.0343,0.0284,0.0276,0.026,0.023,0.0229,0.0146,0.0144,0.0239,0.038,0,0,0,0.0451,0.0449,0.044,0.0425,0.0382,0.0321,0.0307,0.0281,0.0262,0.0231,0.0229,0.0146,0.0145,0.0238,0.0375,0.0458,0,0,0,0.0479,0.0501,0.0441,0.0463,0.0383,0.0325,0.0306,0.0262,0.0236,0.023,0.0146,0.0144,0.0238,0.0371,0.0453,0.0371,0.0384,0,0,0.053,0.0508,0.0523,0.0467,0.0485,0.0338,0.0304,0.0265,0.0212,0.0169,0.0166,0.0239,0.0374,0.0457,0.0276,0.0293,0,0,0,0.0555,0.0578,0.0568,0.0562,0.0483,0.0404,0.0293,0.026,0.021,0.0188,0.0178,0.0262,0.0311,0.0248,0.026,0.0136,0.0136,0.0137,0.0137,0.0701,0.0667,0.0698,0.0631,0.0567,0.044,0.0399,0.0317,0.0225,0.0203,0.029,0.0365,0.029,0.03,0.0179,0.0179,0.018,0.018,0.018,0.0811,0.0814,0.0778,0.0781,0.0678,0.0597,0.0487,0.043,0.0432,0.0322,0.0361,0.0291,0.032,0.0186,0.0185,0.0184,0.0184,0.0183,0.0183,0.0861,0.0857,0.0863,0.0862,0.0843,0.0707,0.0764,0.0682,0.0582,0.0626,0.0527,0.0523,0.0517,0.0611,0.0612,0.0613,0.0614,0.0614,0.0615,0.089,0.0904,0.0952,0.095,0.0972,0.0976,0.0952,0.0971,0.0855,0.0692,0.0689,0.0512,0.0498,0.0541,0.0629,0.0627,0.0625,0.0624,0.0623,0.0935,0.0946,0.1026,0.1084,0.1197,0.128,0.1258,0.1187,0.116,0.1089,0.0707,0.0699,0.0689,0.0673,0.0718,0.0849,0.0849,0.0849,0.0849,0.0977,0.0986,0.1138,0.1281,0.1412,0.1451,0.1468,0.1147,0.0884,0.0637,0.0646,0.0469,0.0465,0.0431,0.0421,0.0456,0.052,0.0519,0.0518,0.1053,0.1088,0.121,0.1343,0.1525,0.1619,0.1477,0.0951,0.0525,0.0501,0.0551,0.0834,0.0587,0.0576,0.0529,0.0512,0.057,0,0]}],[{"header":{"parameterUnit":"m.s-1","parameterCategory":2,"la1":30.2992,"la2":30.254,"lo1":-89.0895,"lo2":-89.0443,"dy":0.0025,"dx":0.0025,"nx":19,"ny":19,"refTime":"2026-03-19T03:00:00:Z","depth":"4","parameterNumber":2,"parameterNumberName":"U-component_of_CURRENTS"},"data":[0,0,0,0.0147,0.0147,0.0142,0.0142,0.0193,0.0194,0,0,0,0,0,0,0,0,0,0,0,0.0155,0.0155,0.0147,0.0147,0.0142,0.0142,0.0193,0.0194,0,0,0,0,0,0,0,0,0,0,0,0.0155,0.0155,0.0155,0.0147,0.0142,0.0142,0.0193,0.0182,0,0,0,0,0,0,0,0,0,0,0.0179,0.0174,0.0155,0.0155,0.0147,0.0143,0.0142,0.0181,0.0183,0.0213,0,0.0217,0,0.0207,0.0199,0.0199,0,0,0,0.0145,0.0172,0.0176,0.0155,0.0147,0.0143,0.0144,0.0181,0.0184,0.0215,0.0218,0.0219,0.0208,0.0199,0.02,0.0269,0.027,0,0,0.0145,0.015,0.0174,0.0178,0.0155,0.0144,0.0144,0.0182,0.0187,0.0218,0.022,0.0209,0.02,0.02,0.0269,0.0269,0,0,0,0.0148,0.015,0.0151,0.0176,0.0171,0.0144,0.0144,0.0185,0.0187,0.022,0.021,0.02,0.0201,0.0269,0.0269,0.0326,0,0,0,0.0148,0.0151,0.0151,0.0153,0.017,0.0169,0.0146,0.0184,0.0188,0.0209,0.02,0.0202,0.0269,0.0269,0.0324,0.0322,0,0,0,0.0154,0.0151,0.0154,0.0154,0.0152,0.0168,0.0171,0.0184,0.0182,0.0199,0.0202,0.0269,0.0269,0.0322,0.0319,0.0308,0,0,0,0.0153,0.0146,0.0155,0.0153,0.0152,0.0153,0.017,0.0175,0.0188,0.0201,0.0269,0.0269,0.0322,0.0318,0.0307,0.0234,0,0,0,0.0139,0.0145,0.0145,0.0152,0.0149,0.0152,0.018,0.0207,0.0209,0.0259,0.026,0.0325,0.0319,0.0308,0.0264,0,0,0,0,0.0138,0.0136,0.0138,0.0143,0.015,0.0181,0.0195,0.0226,0.0276,0.0219,0.0319,0.0313,0.0304,0.0259,0.0272,0.0272,0.0272,0.0271,0.0271,0.0095,0.0114,0.0119,0.0144,0.0163,0.0204,0.0236,0.0281,0.0297,0.033,0.0357,0.0379,0.0336,0.0366,0.0367,0.0367,0.0367,0.0367,0.0368,0.007,0.0075,0.0122,0.0145,0.0197,0.0245,0.0314,0.0342,0.0392,0.0402,0.0392,0.0319,0.0373,0.0372,0.0371,0.0371,0.037,0.037,0.0369,0.0036,0.0045,0.0087,0.0145,0.0222,0.0295,0.0345,0.0406,0.0423,0.043,0.0361,0.0395,0.0391,0.0434,0.0433,0.0433,0.0433,0.0433,0.0433,-0.001,0.0028,0.0071,0.0146,0.0209,0.0288,0.037,0.0353,0.0382,0.0389,0.044,0.04,0.0398,0.0393,0.0433,0.0433,0.0433,0.0433,0.0433,-0.0056,-0.0019,0.0038,0.0096,0.0211,0.0254,0.0324,0.0302,0.0282,0.0246,0.0353,0.0357,0.0315,0.0315,0.0305,0.032,0.032,0.0319,0,-0.0089,-0.007,0.0027,0.011,0.0167,0.0238,0.0206,0.0188,0.0213,0.0262,0.0238,0.0362,0.0365,0.0317,0.0315,0.0303,0,0,0,-0.0112,-0.0075,-0.001,0.009,0.0168,0.0178,0.02,0.0194,0.0268,0.0157,0.0298,0.0303,0.0249,0.0431,0.0376,0.0373,0.0362,0,0]},{"header":{"parameterUnit":"m.s-1","parameterCategory":2,"la1":30.2992,"la2":30.254,"lo1":-89.0895,"lo2":-89.0443,"dy":0.0025,"dx":0.0025,"nx":19,"ny":19,"refTime":"2026-03-19T03:00:00:Z","depth":"4","parameterNumber":3,"parameterNumberName":"V-component_of_CURRENTS"},"data":[0,0,0,0.0423,0.0423,0.0426,0.0426,0.0432,0.0432,0,0,0,0,0,0,0,0,0,0,0,0.0427,0.0427,0.0423,0.0423,0.0426,0.0426,0.0432,0.0432,0,0,0,0,0,0,0,0,0,0,0,0.0426,0.0427,0.0427,0.0423,0.0426,0.0426,0.0432,0.0428,0,0,0,0,0,0,0,0,0,0,0.0425,0.0422,0.0427,0.0427,0.0423,0.0426,0.0426,0.0428,0.0429,0.0432,0,0.0439,0,0.0435,0.0433,0.0433,0,0,0,0.042,0.0421,0.0429,0.0427,0.0423,0.0426,0.0424,0.0428,0.0429,0.0432,0.0439,0.0439,0.0435,0.0433,0.0433,0.0366,0.0365,0,0,0.042,0.0418,0.0429,0.043,0.0433,0.0424,0.0424,0.0429,0.0429,0.0439,0.0439,0.0435,0.0433,0.0433,0.0367,0.0366,0,0,0,0.0421,0.0418,0.0426,0.043,0.043,0.0424,0.0424,0.0428,0.0433,0.0439,0.0435,0.0433,0.0433,0.0368,0.0366,0.0275,0,0,0,0.0421,0.0419,0.0426,0.0424,0.043,0.0427,0.0424,0.0433,0.0433,0.0435,0.0433,0.0433,0.0369,0.0367,0.0279,0.0252,0,0,0,0.0425,0.0419,0.0424,0.0424,0.0427,0.0427,0.0432,0.0433,0.0431,0.0433,0.0433,0.0369,0.0367,0.0283,0.0259,0.0225,0,0,0,0.0417,0.0394,0.0424,0.0401,0.0427,0.0405,0.0431,0.0424,0.0423,0.0433,0.0368,0.0367,0.0284,0.0263,0.0228,0.0298,0,0,0,0.0375,0.0389,0.0375,0.0401,0.0363,0.0404,0.034,0.0361,0.039,0.0369,0.0368,0.0278,0.0259,0.0226,0.0185,0,0,0,0,0.0352,0.0336,0.0334,0.0324,0.0332,0.0304,0.0322,0.0303,0.0274,0.0381,0.0264,0.0256,0.0238,0.0288,0.0357,0.0357,0.0358,0.0358,0.0358,0.0253,0.0269,0.0242,0.0251,0.024,0.0228,0.0193,0.0171,0.0214,0.0172,0.017,0.0069,0.0116,0.0153,0.0152,0.0151,0.0151,0.0151,0.0151,0.0185,0.0185,0.0185,0.017,0.0157,0.0117,0.0059,0.0058,-0.0003,0.0046,0.0033,0.0174,0.0141,0.0143,0.0145,0.0146,0.0146,0.0147,0.0147,0.0149,0.0156,0.0154,0.0141,0.0095,0.007,0.0011,-0.0029,-0.0068,-0.0098,-0.0004,0.0014,0.0035,-0.0085,-0.0086,-0.0086,-0.0086,-0.0087,-0.0087,0.0139,0.0135,0.0134,0.0117,0.0107,0.007,-0.0002,-0.0041,-0.0082,-0.0094,-0.0101,-0.001,-0.0002,0.0022,-0.0091,-0.0091,-0.009,-0.009,-0.0089,0.0119,0.0136,0.0138,0.0136,0.0105,0.0072,0.0028,-0.004,-0.0089,-0.0117,-0.0093,-0.0092,-0.0043,-0.0035,-0.0009,-0.0136,-0.0136,-0.0135,0,0.0117,0.012,0.0153,0.0149,0.0112,0.0066,0.0019,-0.0023,-0.009,-0.0097,-0.0113,-0.0086,-0.0084,-0.0025,-0.0017,0.0015,0,0,0,0.0106,0.0126,0.0156,0.0161,0.0111,0.0028,-0.0004,-0.0028,-0.0062,-0.0075,-0.0123,-0.0126,-0.0046,-0.0106,-0.0027,-0.0017,0.0026,0,0]}]]